カタログに戻る

SL-12 R/B

AUX MOTOR

運用中HEO
NORAD 36116·ROCKET BODY·🇷🇺 Russia

打ち上げ Dec 14, 2009 から Baikonur Cosmodrome

Loading…

次のパス (今後24時間)

TLE

最新Source: Space-Track

元期: Sep 13, 2026, 18:24 UTC

1 36116U 09070F   26256.76713507 -.00000043  00000-0 -47406-3 0  9993
2 36116  64.9782 174.2403 5574929 295.7503  17.8196  4.35655714104892

AllMySatでSL-12 R/Bをリアルタイム追跡

Download on the App Store